| time (UTC) | temp F | wind direction | speed MPH | gust MPH | rain 1hr in | rain 24hr in | rain mn in | humidity % | barometer mb |
| 20260510115225 | 47 | 270 | 0.0 | 0.0 | 0.00 | 0.00 | 0.00 | 48 | 1016.4 |
| 20260510114712 | 47 | 270 | 0.0 | 0.0 | 0.00 | 0.00 | 0.00 | 50 | 1016.5 |
| 20260510114204 | 47 | 270 | 0.0 | 0.0 | 0.00 | 0.00 | 0.00 | 51 | 1016.4 |
| 20260510113703 | 47 | 270 | 0.0 | 0.0 | 0.00 | 0.00 | 0.00 | 49 | 1016.4 |
| 20260510113201 | 47 | 270 | 0.0 | 0.0 | 0.00 | 0.00 | 0.00 | 49 | 1016.3 |
| 20260510112703 | 47 | 286 | 0.0 | 0.0 | 0.00 | 0.00 | 0.00 | 49 | 1016.3 |
| 20260510112144 | 48 | 315 | 0.0 | 0.0 | 0.00 | 0.00 | 0.00 | 48 | 1016.2 |
| 20260510111648 | 49 | 315 | 0.0 | 0.0 | 0.00 | 0.00 | 0.00 | 47 | 1016.2 |
| 20260510111133 | 49 | 268 | 0.0 | 0.0 | 0.00 | 0.00 | 0.00 | 48 | 1016.1 |
| 20260510110632 | 49 | 268 | 0.0 | 0.0 | 0.00 | 0.00 | 0.00 | 48 | 1016.1 |
| 20260510110136 | 49 | 268 | 0.0 | 0.0 | 0.00 | 0.00 | 0.00 | 47 | 1016.1 |
| 20260510105623 | 49 | 268 | 0.0 | 0.0 | 0.00 | 0.00 | 0.00 | 47 | 1016.2 |
| 20260510103851 | 50 | 271 | 0.0 | 0.0 | 0.00 | 0.00 | 0.00 | 44 | 1016.0 |
| 20260510102722 | 51 | 269 | 0.0 | 0.0 | 0.00 | 0.00 | 0.00 | 42 | 1016.0 |
| 20260510102209 | 52 | 268 | 0.0 | 0.0 | 0.00 | 0.00 | 0.00 | 42 | 1016.0 |
| 20260510101708 | 52 | 268 | 0.0 | 0.0 | 0.00 | 0.00 | 0.00 | 39 | 1016.1 |
| 20260510101204 | 52 | 268 | 0.0 | 0.0 | 0.00 | 0.00 | 0.00 | 38 | 1016.0 |
| 20260510100704 | 51 | 272 | 0.0 | 0.0 | 0.00 | 0.00 | 0.00 | 40 | 1016.0 |
| 20260510100209 | 52 | 272 | 0.0 | 0.0 | 0.00 | 0.00 | 0.00 | 40 | 1015.9 |
| 20260510095706 | 52 | 272 | 0.0 | 0.0 | 0.00 | 0.00 | 0.00 | 39 | 1015.9 |
| 20260510095155 | 53 | 272 | 0.0 | 0.0 | 0.00 | 0.00 | 0.00 | 39 | 1015.8 |
| 20260510094650 | 53 | 272 | 0.0 | 0.0 | 0.00 | 0.00 | 0.00 | 37 | 1015.8 |
| 20260510094156 | 52 | 272 | 0.0 | 0.0 | 0.00 | 0.00 | 0.00 | 38 | 1015.8 |
| 20260510093648 | 52 | 272 | 0.0 | 0.0 | 0.00 | 0.00 | 0.00 | 38 | 1015.6 |
| 20260510093132 | 52 | 272 | 0.0 | 0.0 | 0.00 | 0.00 | 0.00 | 37 | 1015.7 |
| 20260510092630 | 52 | 266 | 0.0 | 0.0 | 0.00 | 0.00 | 0.00 | 38 | 1015.6 |
| 20260510091453 | 52 | 267 | 0.0 | 0.0 | 0.00 | 0.00 | 0.00 | 39 | 1015.6 |
| 20260510090346 | 53 | 266 | 0.0 | 0.0 | 0.00 | 0.00 | 0.00 | 37 | 1015.5 |
| 20260510085838 | 53 | 265 | 0.0 | 1.0 | 0.00 | 0.00 | 0.00 | 36 | 1015.5 |
| 20260510084724 | 54 | 264 | 0.0 | 1.0 | 0.00 | 0.00 | 0.00 | 36 | 1015.4 |
| 20260510084218 | 53 | 270 | 0.0 | 1.0 | 0.00 | 0.00 | 0.00 | 36 | 1015.4 |
| 20260510083717 | 53 | 270 | 0.0 | 0.0 | 0.00 | 0.00 | 0.00 | 37 | 1015.4 |
| 20260510083159 | 52 | 270 | 0.0 | 0.0 | 0.00 | 0.00 | 0.00 | 37 | 1015.3 |
| 20260510082028 | 52 | 270 | 0.0 | 0.0 | 0.00 | 0.00 | 0.00 | 39 | 1015.2 |
| 20260510081535 | 52 | 270 | 0.0 | 0.0 | 0.00 | 0.00 | 0.00 | 37 | 1015.2 |
| 20260510081019 | 53 | 270 | 0.0 | 0.0 | 0.00 | 0.00 | 0.00 | 39 | 1015.2 |
| 20260510080505 | 53 | 270 | 0.0 | 0.0 | 0.00 | 0.00 | 0.00 | 37 | 1015.2 |
| 20260510080008 | 53 | 270 | 0.0 | 0.0 | 0.00 | 0.00 | 0.00 | 38 | 1015.2 |
| 20260510075514 | 53 | 270 | 0.0 | 0.0 | 0.00 | 0.00 | 0.00 | 38 | 1015.1 |
| 20260510074959 | 52 | 270 | 0.0 | 0.0 | 0.00 | 0.00 | 0.00 | 39 | 1015.0 |
| 20260510074451 | 52 | 271 | 0.0 | 0.0 | 0.00 | 0.00 | 0.00 | 38 | 1015.0 |
| 20260510073949 | 52 | 271 | 0.0 | 0.0 | 0.00 | 0.00 | 0.00 | 38 | 1015.1 |
| 20260510073439 | 53 | 271 | 0.0 | 0.0 | 0.00 | 0.00 | 0.00 | 37 | 1015.0 |
| 20260510072945 | 53 | 271 | 0.0 | 0.0 | 0.00 | 0.00 | 0.00 | 35 | 1014.9 |
| 20260510072434 | 54 | 271 | 0.0 | 0.0 | 0.00 | 0.00 | 0.00 | 36 | 1014.9 |
| 20260510071943 | 54 | 264 | 0.0 | 0.0 | 0.00 | 0.00 | 0.00 | 34 | 1014.9 |
| 20260510071437 | 54 | 277 | 0.0 | 0.0 | 0.00 | 0.00 | 0.00 | 34 | 1014.8 |
| 20260510070918 | 54 | 277 | 0.0 | 0.0 | 0.00 | 0.00 | 0.00 | 35 | 1014.8 |
| 20260510070429 | 55 | 277 | 0.0 | 0.0 | 0.00 | 0.00 | 0.00 | 35 | 1014.8 |
| 20260510065923 | 54 | 274 | 0.0 | 0.0 | 0.00 | 0.00 | 0.00 | 34 | 1014.7 |
| 20260510065427 | 54 | 274 | 0.0 | 0.0 | 0.00 | 0.00 | 0.00 | 34 | 1014.6 |
| 20260510064932 | 55 | 274 | 0.0 | 0.0 | 0.00 | 0.00 | 0.00 | 33 | 1014.5 |
| 20260510063806 | 55 | 274 | 0.0 | 0.0 | 0.00 | 0.00 | 0.00 | 34 | 1014.4 |
| 20260510063258 | 54 | 275 | 0.0 | 0.0 | 0.00 | 0.00 | 0.00 | 35 | 1014.3 |
| 20260510062745 | 55 | 275 | 0.0 | 0.0 | 0.00 | 0.00 | 0.00 | 35 | 1014.2 |
| 20260510061622 | 54 | 278 | 0.0 | 0.0 | 0.00 | 0.00 | 0.00 | 36 | 1014.2 |
| 20260510061111 | 54 | 278 | 0.0 | 0.0 | 0.00 | 0.00 | 0.00 | 36 | 1014.1 |
| 20260510060611 | 54 | 278 | 0.0 | 0.0 | 0.00 | 0.00 | 0.00 | 35 | 1014.1 |
| 20260510060105 | 55 | 278 | 0.0 | 0.0 | 0.00 | 0.00 | 0.00 | 35 | 1014.0 |
| 20260510053714 | 56 | 278 | 0.0 | 0.0 | 0.00 | 0.00 | 0.00 | 35 | 1013.9 |
| 20260510053209 | 56 | 278 | 0.0 | 0.0 | 0.00 | 0.00 | 0.00 | 35 | 1013.9 |
| 20260510050744 | 57 | 278 | 0.0 | 0.0 | 0.00 | 0.00 | 0.00 | 33 | 1013.7 |
| 20260510050232 | 57 | 278 | 0.0 | 0.0 | 0.00 | 0.00 | 0.00 | 33 | 1013.6 |
| 20260510045741 | 57 | 283 | 0.0 | 0.0 | 0.00 | 0.00 | 0.00 | 33 | 1013.6 |
| 20260510045227 | 57 | 284 | 0.0 | 0.0 | 0.00 | 0.00 | 0.00 | 33 | 1013.6 |
| 20260510044728 | 57 | 283 | 0.0 | 0.0 | 0.00 | 0.00 | 0.00 | 33 | 1013.5 |
| 20260510044214 | 57 | 292 | 0.0 | 0.0 | 0.00 | 0.00 | 0.00 | 33 | 1013.5 |
| 20260510043703 | 58 | 292 | 0.0 | 0.0 | 0.00 | 0.00 | 0.00 | 32 | 1013.5 |
| 20260510043212 | 58 | 292 | 0.0 | 0.0 | 0.00 | 0.00 | 0.00 | 32 | 1013.4 |
| 20260510042659 | 58 | 300 | 0.0 | 0.0 | 0.00 | 0.00 | 0.00 | 31 | 1013.3 |
| 20260510042200 | 59 | 311 | 0.0 | 0.0 | 0.00 | 0.00 | 0.00 | 30 | 1013.3 |
| 20260510041658 | 59 | 311 | 0.0 | 0.0 | 0.00 | 0.00 | 0.00 | 29 | 1013.2 |
| 20260510041200 | 60 | 311 | 0.0 | 0.0 | 0.00 | 0.00 | 0.00 | 29 | 1013.2 |
| 20260510040643 | 60 | 321 | 0.0 | 0.0 | 0.00 | 0.00 | 0.00 | 28 | 1013.1 |
| 20260510040153 | 61 | 321 | 0.0 | 0.0 | 0.00 | 0.00 | 0.00 | 27 | 1013.1 |
| 20260510035657 | 61 | 321 | 0.0 | 0.0 | 0.00 | 0.00 | 0.00 | 26 | 1012.9 |
| 20260510035151 | 61 | 321 | 0.0 | 0.0 | 0.00 | 0.00 | 0.00 | 26 | 1012.8 |
| 20260510033419 | 63 | 271 | 0.0 | 0.0 | 0.00 | 0.00 | 0.00 | 23 | 1012.5 |
| 20260510032259 | 64 | 265 | 0.0 | 2.0 | 0.00 | 0.00 | 0.00 | 22 | 1012.3 |
| 20260510031741 | 65 | 268 | 0.0 | 1.0 | 0.00 | 0.00 | 0.00 | 22 | 1012.3 |
| 20260510031238 | 65 | 276 | 0.0 | 1.0 | 0.00 | 0.00 | 0.00 | 21 | 1012.2 |
| 20260510030742 | 65 | 272 | 0.0 | 3.0 | 0.00 | 0.00 | 0.00 | 21 | 1012.2 |
| 20260510030228 | 66 | 266 | 1.0 | 3.0 | 0.00 | 0.00 | 0.00 | 21 | 1012.1 |
| 20260510025713 | 66 | 274 | 1.0 | 4.0 | 0.00 | 0.00 | 0.00 | 20 | 1011.9 |
| 20260510024540 | 67 | 252 | 1.0 | 4.0 | 0.00 | 0.00 | 0.00 | 20 | 1011.8 |
| 20260510024028 | 67 | 248 | 0.0 | 4.0 | 0.00 | 0.00 | 0.00 | 19 | 1011.7 |
| 20260510023530 | 67 | 278 | 0.0 | 0.0 | 0.00 | 0.00 | 0.00 | 19 | 1011.7 |
| 20260510023031 | 68 | 279 | 0.0 | 0.0 | 0.00 | 0.00 | 0.00 | 18 | 1011.6 |
| 20260510022531 | 68 | 279 | 0.0 | 0.0 | 0.00 | 0.00 | 0.00 | 17 | 1011.6 |
| 20260510022032 | 69 | 279 | 0.0 | 0.0 | 0.00 | 0.00 | 0.00 | 15 | 1011.5 |
| 20260510021522 | 70 | 279 | 0.0 | 0.0 | 0.00 | 0.00 | 0.00 | 15 | 1011.5 |
| 20260510021014 | 70 | 279 | 0.0 | 0.0 | 0.00 | 0.00 | 0.00 | 13 | 1011.5 |
| 20260510020514 | 70 | 280 | 0.0 | 0.0 | 0.00 | 0.00 | 0.00 | 14 | 1011.4 |
| 20260510020009 | 70 | 297 | 0.0 | 0.0 | 0.00 | 0.00 | 0.00 | 14 | 1011.4 |
| 20260510015519 | 71 | 298 | 0.0 | 0.0 | 0.00 | 0.00 | 0.00 | 15 | 1011.4 |
| 20260510015027 | 71 | 297 | 0.0 | 0.0 | 0.00 | 0.00 | 0.00 | 14 | 1011.4 |
| 20260510014509 | 71 | 324 | 0.0 | 0.0 | 0.00 | 0.00 | 0.00 | 14 | 1011.4 |
| 20260510014009 | 71 | 325 | 0.0 | 1.0 | 0.00 | 0.00 | 0.00 | 14 | 1011.4 |
| 20260510012818 | 71 | 329 | 0.0 | 0.0 | 0.00 | 0.00 | 0.00 | 14 | 1011.5 |
| 20260510012311 | 72 | 337 | 0.0 | 0.0 | 0.00 | 0.00 | 0.00 | 14 | 1011.5 |
| 20260510011807 | 72 | 341 | 0.0 | 3.0 | 0.00 | 0.00 | 0.00 | 14 | 1011.6 |
| 20260510011314 | 72 | 327 | 0.0 | 1.0 | 0.00 | 0.00 | 0.00 | 13 | 1011.5 |
| 20260510010804 | 72 | 17 | 1.0 | 3.0 | 0.00 | 0.00 | 0.00 | 14 | 1011.5 |
| 20260510010247 | 72 | 31 | 1.0 | 4.0 | 0.00 | 0.00 | 0.00 | 14 | 1011.5 |
| 20260510005739 | 72 | 343 | 1.0 | 4.0 | 0.00 | 0.00 | 0.00 | 14 | 1011.5 |
| 20260510005231 | 72 | 348 | 0.0 | 4.0 | 0.00 | 0.00 | 0.00 | 15 | 1011.5 |
| 20260510004735 | 72 | 351 | 0.0 | 4.0 | 0.00 | 0.00 | 0.00 | 14 | 1011.5 |
| 20260510003619 | 73 | 329 | 1.0 | 7.0 | 0.00 | 0.00 | 0.00 | 15 | 1011.5 |
| 20260510003106 | 73 | 331 | 1.0 | 7.0 | 0.00 | 0.00 | 0.00 | 13 | 1011.6 |
| 20260510002605 | 73 | 54 | 1.0 | 7.0 | 0.00 | 0.00 | 0.00 | 13 | 1011.7 |
| 20260510001450 | 73 | 316 | 0.0 | 1.0 | 0.00 | 0.00 | 0.00 | 14 | 1011.7 |
| 20260510000951 | 73 | 309 | 0.0 | 1.0 | 0.00 | 0.00 | 0.00 | 14 | 1011.8 |
| 20260510000433 | 73 | 267 | 1.0 | 6.0 | 0.00 | 0.00 | 0.00 | 14 | 1011.8 |
| 20260509235249 | 73 | 327 | 2.0 | 8.0 | 0.00 | 0.00 | 0.00 | 14 | 1011.9 |
| 20260509234739 | 73 | 353 | 3.0 | 8.0 | 0.00 | 0.00 | 0.00 | 14 | 1011.9 |
| 20260509234241 | 73 | 320 | 2.0 | 8.0 | 0.00 | 0.00 | 0.00 | 14 | 1011.9 |
| 20260509233732 | 73 | 332 | 2.0 | 8.0 | 0.00 | 0.00 | 0.00 | 15 | 1012.0 |
| 20260509232559 | 73 | 343 | 2.0 | 8.0 | 0.00 | 0.00 | 0.00 | 15 | 1011.9 |
| 20260509232042 | 73 | 255 | 1.0 | 6.0 | 0.00 | 0.00 | 0.00 | 13 | 1012.0 |
| 20260509231545 | 73 | 344 | 1.0 | 6.0 | 0.00 | 0.00 | 0.00 | 13 | 1012.2 |
| 20260509231030 | 73 | 291 | 1.0 | 2.0 | 0.00 | 0.00 | 0.00 | 13 | 1012.1 |
| 20260509225921 | 73 | 340 | 3.0 | 7.0 | 0.00 | 0.00 | 0.00 | 13 | 1012.3 |
| 20260509225404 | 73 | 335 | 2.0 | 7.0 | 0.00 | 0.00 | 0.00 | 13 | 1012.3 |
| 20260509224847 | 73 | 347 | 2.0 | 9.0 | 0.00 | 0.00 | 0.00 | 15 | 1012.3 |
| 20260509224335 | 73 | 320 | 2.0 | 9.0 | 0.00 | 0.00 | 0.00 | 13 | 1012.3 |
| 20260509223819 | 73 | 311 | 3.0 | 9.0 | 0.00 | 0.00 | 0.00 | 14 | 1012.4 |
| 20260509223322 | 73 | 339 | 3.0 | 9.0 | 0.00 | 0.00 | 0.00 | 14 | 1012.4 |
| 20260509222815 | 73 | 71 | 2.0 | 9.0 | 0.00 | 0.00 | 0.00 | 12 | 1012.4 |
| 20260509222306 | 73 | 339 | 3.0 | 9.0 | 0.00 | 0.00 | 0.00 | 13 | 1012.5 |
| 20260509221800 | 73 | 301 | 3.0 | 10.0 | 0.00 | 0.00 | 0.00 | 16 | 1012.5 |
| 20260509221241 | 73 | 340 | 2.0 | 10.0 | 0.00 | 0.00 | 0.00 | 18 | 1012.6 |
| 20260509220728 | 73 | 309 | 2.0 | 10.0 | 0.00 | 0.00 | 0.00 | 18 | 1012.6 |
| 20260509220230 | 73 | 342 | 2.0 | 10.0 | 0.00 | 0.00 | 0.00 | 18 | 1012.7 |
| 20260509215738 | 72 | 324 | 1.0 | 10.0 | 0.00 | 0.00 | 0.00 | 18 | 1012.7 |
| 20260509215244 | 72 | 345 | 2.0 | 14.0 | 0.00 | 0.00 | 0.00 | 17 | 1012.7 |
| 20260509214754 | 72 | 304 | 3.0 | 14.0 | 0.00 | 0.00 | 0.00 | 17 | 1012.8 |
| 20260509214253 | 72 | 336 | 4.0 | 14.0 | 0.00 | 0.00 | 0.00 | 17 | 1012.9 |
| 20260509213735 | 72 | 336 | 3.0 | 14.0 | 0.00 | 0.00 | 0.00 | 16 | 1012.9 |
| 20260509213216 | 72 | 317 | 2.0 | 9.0 | 0.00 | 0.00 | 0.00 | 17 | 1012.8 |
| 20260509212705 | 73 | 312 | 2.0 | 8.0 | 0.00 | 0.00 | 0.00 | 17 | 1012.8 |
| 20260509212209 | 72 | 325 | 1.0 | 8.0 | 0.00 | 0.00 | 0.00 | 18 | 1012.8 |
| 20260509205733 | 71 | 310 | 3.0 | 12.0 | 0.00 | 0.00 | 0.00 | 20 | 1013.0 |
| 20260509205221 | 71 | 316 | 3.0 | 12.0 | 0.00 | 0.00 | 0.00 | 19 | 1013.0 |
| 20260509204725 | 72 | 306 | 2.0 | 12.0 | 0.00 | 0.00 | 0.00 | 19 | 1013.0 |
| 20260509204223 | 71 | 325 | 4.0 | 9.0 | 0.00 | 0.00 | 0.00 | 21 | 1013.0 |
| 20260509203722 | 71 | 49 | 4.0 | 9.0 | 0.00 | 0.00 | 0.00 | 21 | 1012.9 |
| 20260509201923 | 71 | 265 | 2.0 | 12.0 | 0.00 | 0.00 | 0.00 | 20 | 1013.1 |
| 20260509201404 | 71 | 320 | 2.0 | 11.0 | 0.00 | 0.00 | 0.00 | 19 | 1013.1 |
| 20260509200903 | 71 | 260 | 3.0 | 11.0 | 0.00 | 0.00 | 0.00 | 19 | 1013.2 |
| 20260509195743 | 71 | 27 | 3.0 | 12.0 | 0.00 | 0.00 | 0.00 | 21 | 1013.1 |
| 20260509195246 | 71 | 324 | 3.0 | 12.0 | 0.00 | 0.00 | 0.00 | 21 | 1013.1 |
| 20260509194729 | 71 | 337 | 2.0 | 12.0 | 0.00 | 0.00 | 0.00 | 22 | 1013.3 |
| 20260509194233 | 71 | 323 | 3.0 | 10.0 | 0.00 | 0.00 | 0.00 | 24 | 1013.2 |
| 20260509193720 | 70 | 341 | 4.0 | 11.0 | 0.00 | 0.00 | 0.00 | 24 | 1013.2 |
| 20260509193201 | 70 | 322 | 5.0 | 11.0 | 0.00 | 0.00 | 0.00 | 24 | 1013.3 |
| 20260509192642 | 70 | 19 | 4.0 | 12.0 | 0.00 | 0.00 | 0.00 | 25 | 1013.2 |
| 20260509192133 | 70 | 327 | 3.0 | 12.0 | 0.00 | 0.00 | 0.00 | 25 | 1013.3 |
| 20260509191629 | 70 | 335 | 3.0 | 12.0 | 0.00 | 0.00 | 0.00 | 25 | 1013.3 |
| 20260509185844 | 70 | 343 | 2.0 | 10.0 | 0.00 | 0.00 | 0.00 | 25 | 1013.4 |
| 20260509185334 | 71 | 346 | 3.0 | 12.0 | 0.00 | 0.00 | 0.00 | 24 | 1013.5 |
| 20260509184823 | 70 | 257 | 4.0 | 12.0 | 0.00 | 0.00 | 0.00 | 25 | 1013.5 |
| 20260509184323 | 70 | 337 | 3.0 | 12.0 | 0.00 | 0.00 | 0.00 | 25 | 1013.5 |
| 20260509183815 | 70 | 327 | 2.0 | 12.0 | 0.00 | 0.00 | 0.00 | 25 | 1013.6 |
| 20260509183319 | 71 | 323 | 1.0 | 9.0 | 0.00 | 0.00 | 0.00 | 24 | 1013.6 |
| 20260509182803 | 71 | 330 | 1.0 | 9.0 | 0.00 | 0.00 | 0.00 | 24 | 1013.7 |
| 20260509182308 | 70 | 313 | 2.0 | 9.0 | 0.00 | 0.00 | 0.00 | 25 | 1013.7 |
| 20260509181804 | 70 | 352 | 4.0 | 9.0 | 0.00 | 0.00 | 0.00 | 23 | 1013.7 |
| 20260509181247 | 70 | 350 | 2.0 | 9.0 | 0.00 | 0.00 | 0.00 | 23 | 1013.7 |
| 20260509180739 | 71 | 334 | 1.0 | 7.0 | 0.00 | 0.00 | 0.00 | 24 | 1013.7 |
| 20260509180229 | 70 | 277 | 1.0 | 7.0 | 0.00 | 0.00 | 0.00 | 24 | 1013.7 |
| 20260509175714 | 70 | 289 | 1.0 | 10.0 | 0.00 | 0.00 | 0.00 | 24 | 1013.8 |
| 20260509175215 | 69 | 324 | 2.0 | 10.0 | 0.00 | 0.00 | 0.00 | 21 | 1013.8 |
| 20260509173424 | 70 | 342 | 3.0 | 10.0 | 0.00 | 0.00 | 0.00 | 19 | 1013.8 |
| 20260509172909 | 69 | 335 | 3.0 | 10.0 | 0.00 | 0.00 | 0.00 | 22 | 1013.8 |
| 20260509172402 | 68 | 3 | 3.0 | 9.0 | 0.00 | 0.00 | 0.00 | 22 | 1013.8 |
| 20260509171846 | 68 | 6 | 3.0 | 9.0 | 0.00 | 0.00 | 0.00 | 21 | 1013.8 |
| 20260509171339 | 68 | 334 | 3.0 | 9.0 | 0.00 | 0.00 | 0.00 | 20 | 1013.7 |
| 20260509170839 | 68 | 28 | 3.0 | 9.0 | 0.00 | 0.00 | 0.00 | 22 | 1013.8 |
| 20260509170322 | 69 | 346 | 2.0 | 9.0 | 0.00 | 0.00 | 0.00 | 23 | 1013.7 |
| 20260509165209 | 68 | 333 | 3.0 | 10.0 | 0.00 | 0.00 | 0.00 | 24 | 1013.8 |
| 20260509164705 | 68 | 357 | 3.0 | 10.0 | 0.00 | 0.00 | 0.00 | 24 | 1013.7 |
| 20260509164204 | 68 | 74 | 3.0 | 10.0 | 0.00 | 0.00 | 0.00 | 25 | 1013.7 |
| 20260509163659 | 68 | 320 | 3.0 | 7.0 | 0.00 | 0.00 | 0.00 | 25 | 1013.8 |
| 20260509163148 | 68 | 317 | 2.0 | 8.0 | 0.00 | 0.00 | 0.00 | 26 | 1013.7 |
| 20260509162639 | 68 | 330 | 3.0 | 8.0 | 0.00 | 0.00 | 0.00 | 26 | 1013.7 |
| 20260509162130 | 67 | 334 | 3.0 | 8.0 | 0.00 | 0.00 | 0.00 | 26 | 1013.8 |
| 20260509161632 | 67 | 351 | 3.0 | 8.0 | 0.00 | 0.00 | 0.00 | 26 | 1013.8 |
| 20260509161131 | 67 | 70 | 3.0 | 7.0 | 0.00 | 0.00 | 0.00 | 25 | 1013.8 |
| 20260509160028 | 66 | 326 | 3.0 | 7.0 | 0.00 | 0.00 | 0.00 | 26 | 1013.8 |
| 20260509155515 | 66 | 327 | 3.0 | 7.0 | 0.00 | 0.00 | 0.00 | 25 | 1013.8 |
| 20260509155016 | 66 | 351 | 3.0 | 7.0 | 0.00 | 0.00 | 0.00 | 25 | 1013.8 |
| 20260509154514 | 66 | 37 | 3.0 | 7.0 | 0.00 | 0.00 | 0.00 | 27 | 1013.8 |
| 20260509154017 | 65 | 83 | 3.0 | 8.0 | 0.00 | 0.00 | 0.00 | 27 | 1013.9 |
| 20260509153515 | 65 | 335 | 3.0 | 8.0 | 0.00 | 0.00 | 0.00 | 28 | 1013.8 |
| 20260509153004 | 66 | 329 | 3.0 | 8.0 | 0.00 | 0.00 | 0.00 | 28 | 1013.8 |
| 20260509151836 | 65 | 331 | 2.0 | 6.0 | 0.00 | 0.00 | 0.00 | 28 | 1013.6 |
| 20260509151341 | 65 | 332 | 1.0 | 5.0 | 0.00 | 0.00 | 0.00 | 30 | 1013.7 |
| 20260509145601 | 65 | 329 | 0.0 | 4.0 | 0.00 | 0.00 | 0.00 | 30 | 1013.7 |
| 20260509145101 | 64 | 327 | 1.0 | 4.0 | 0.00 | 0.00 | 0.00 | 30 | 1013.6 |
| 20260509144604 | 64 | 299 | 1.0 | 3.0 | 0.00 | 0.00 | 0.00 | 31 | 1013.6 |
| 20260509144045 | 65 | 276 | 0.0 | 2.0 | 0.00 | 0.00 | 0.00 | 30 | 1013.6 |
| 20260509143526 | 65 | 256 | 0.0 | 2.0 | 0.00 | 0.00 | 0.00 | 30 | 1013.5 |
| 20260509142417 | 63 | 274 | 0.0 | 4.0 | 0.00 | 0.00 | 0.00 | 33 | 1013.6 |
| 20260509141921 | 63 | 316 | 0.0 | 0.0 | 0.00 | 0.00 | 0.00 | 32 | 1013.5 |
| 20260509141421 | 63 | 302 | 0.0 | 3.0 | 0.00 | 0.00 | 0.00 | 34 | 1013.6 |
| 20260509140233 | 62 | 272 | 0.0 | 3.0 | 0.00 | 0.00 | 0.00 | 34 | 1013.5 |
| 20260509135722 | 61 | 263 | 0.0 | 1.0 | 0.00 | 0.00 | 0.00 | 36 | 1013.5 |
| 20260509134558 | 60 | 295 | 0.0 | 0.0 | 0.00 | 0.00 | 0.00 | 38 | 1013.4 |
| 20260509133440 | 58 | 274 | 0.0 | 0.0 | 0.00 | 0.00 | 0.00 | 38 | 1013.3 |
| 20260509132939 | 58 | 275 | 0.0 | 0.0 | 0.00 | 0.00 | 0.00 | 39 | 1013.2 |
| 20260509132433 | 57 | 275 | 0.0 | 0.0 | 0.00 | 0.00 | 0.00 | 42 | 1013.2 |
| 20260509131917 | 56 | 262 | 0.0 | 1.0 | 0.00 | 0.00 | 0.00 | 40 | 1013.1 |
| 20260509131418 | 55 | 276 | 0.0 | 1.0 | 0.00 | 0.00 | 0.00 | 41 | 1013.1 |
| 20260509130901 | 54 | 272 | 0.0 | 0.0 | 0.00 | 0.00 | 0.00 | 42 | 1013.0 |
| 20260509130349 | 54 | 272 | 0.0 | 0.0 | 0.00 | 0.00 | 0.00 | 43 | 1013.0 |
| 20260509125834 | 53 | 272 | 0.0 | 0.0 | 0.00 | 0.00 | 0.00 | 43 | 1012.9 |
| 20260509124706 | 52 | 272 | 0.0 | 0.0 | 0.00 | 0.00 | 0.00 | 44 | 1012.8 |
| 20260509123543 | 52 | 272 | 0.0 | 0.0 | 0.00 | 0.00 | 0.00 | 44 | 1012.7 |
| 20260509123030 | 53 | 272 | 0.0 | 0.0 | 0.00 | 0.00 | 0.00 | 42 | 1012.6 |
| 20260509122533 | 54 | 272 | 0.0 | 0.0 | 0.00 | 0.00 | 0.00 | 41 | 1012.6 |
| 20260509122014 | 54 | 272 | 0.0 | 0.0 | 0.00 | 0.00 | 0.00 | 40 | 1012.5 |
| 20260509121521 | 54 | 272 | 0.0 | 0.0 | 0.00 | 0.00 | 0.00 | 41 | 1012.5 |
| 20260509121028 | 54 | 275 | 0.0 | 0.0 | 0.00 | 0.00 | 0.00 | 41 | 1012.5 |